Location: Gallinara
(44.0333°N, 8.2333°E)
Time: 06:38:17
(UTC+00:00)

X-37B - Pass Details

Date: 25 September 2020
Orbit: 382 x 392 km, 45.0° (Epoch: 15 October)

Event Time Altitude Azimuth Distance (km) Brightness Sun altitude
Exits shadow 03:04:33 10° 133° (SE) 1,406 3.7 -24.2°
Drops below altitude 10° 03:04:38 - 133° (SE) 1,438 3.7 -24.2°
Sets 03:06:39 0° 126° (SE) 2,248 4.9 -23.8°
